Location: Gleizolles
(44.4833°N, 6.7667°E)
Time: 14:19:37
(UTC+00:00)

Oscar 19 - Visible Passes

Search period start: 12 July 2024 00:00
Search period end: 22 July 2024 00:00
Orbit: 770 x 789 km, 98.9° (Epoch: 12 July)

Date Brightness Start Highest point End Pass type
(mag) Time Alt. Az. Time Alt. Az. Time Alt. Az.
13 Jul 13.6 03:26:14 10° ENE 03:28:05 12° E 03:29:55 10° ESE visible
16 Jul 13.6 03:27:48 10° ENE 03:29:49 12° E 03:31:49 10° ESE visible
19 Jul 13.5 03:29:23 10° ENE 03:31:32 13° E 03:33:42 10° ESE visible
